Location: Guferjoch
(46.7462°N, 8.4506°E)
Time: 11:48:59
(UTC+00:00)

UNK - Pass Details

Date: 14 July 2020
Orbit: 667 x 685 km, 98.1° (Epoch: 06 August)

Event Time Altitude Azimuth Distance (km) Brightness Sun altitude
Exits shadow 01:33:05 29° 201° (SSW) 1,230 4.5 -16.4°
Maximum altitude 01:35:07 50° 260° (W) 867 4.0 -16.2°
Drops below altitude 10° 01:39:38 10° 336° (NNW) 2,126 6.8 -15.8°
Sets 01:41:57 0° 342° (NNW) 3,049 7.7 -15.6°
